Hourly Data Report for November 16, 2019

OTTAWA INTL A
ONTARIO
Current Station Operator: NAVCAN

45°19'00.000" N
75°40'00.000" W
114.90 m
6106001
71628
YOW

Download Data

Hourly Data (November 2019)
Hourly Data Report for November 16, 2019
TIME Temp Definition
°C
Dew Point Definition
°C
Rel Hum Definition
%
Wind Dir Definition
10's deg

Wind Spd Definition
km/h
Visibility Definition
km
Stn Press Definition
kPa
Hmdx Definition


Wind Chill Definition


Weather Definition


00:00 -11.0 -17.0 62 32 24 24.1 101.89   -20 LegendNANA
01:00 -11.8 -17.0 65 32 23 24.1 101.93   -21 Clear
02:00 -13.2 -17.9 69 30 14 24.1 101.98   -20 LegendNANA
03:00 -13.1 -17.6 69 31 19 24.1 102.03   -22 LegendNANA
04:00 -13.3 -17.4 72 33 13 24.1 102.06   -20 Clear
05:00 -14.0 -17.8 73 32 15 24.1 102.13   -22 LegendNANA
06:00 -14.0 -17.7 74 32 16 24.1 102.19   -22 LegendNANA
07:00 -14.2 -17.5 76 31 17 24.1 102.26   -22 Clear
08:00 -14.1 -17.6 76 31 12 24.1 102.35   -21 LegendNANA
09:00 -13.1 -16.7 75 25 6 24.1 102.41   -17 LegendNANA
10:00 -11.1 -15.8 69 23 10 24.1 102.46   -17 Clear
11:00 -9.6 -15.3 63 29 4 24.1 102.47   -12 LegendNANA
12:00 -8.8 -15.3 60 27 7 24.1 102.39   -13 LegendNANA
13:00 -7.8 -15.6 54 22 8 24.1 102.30   -12 Clear
14:00 -6.8 -15.5 50 27 3 24.1 102.23   -8 LegendNANA
15:00 -6.6 -15.8 48 20 5 24.1 102.21   -9 LegendNANA
16:00 -7.0 -15.8 50 21 7 24.1 102.20   -11 Clear
17:00 -8.5 -15.7 56 22 7 24.1 102.21   -12 LegendNANA
18:00 -11.6 -17.1 64 18 7 24.1 102.17   -16 LegendNANA
19:00 -13.1 -18.2 66 20 5 24.1 102.14   -16 Clear
20:00 -11.8 -16.6 68 22 5 24.1 102.13   -15 LegendNANA
21:00 -11.6 -15.1 75 36 1 24.1 102.12   -12 LegendNANA
22:00 -13.3 -16.3 79 15 4 24.1 102.10   -16 Clear
23:00 -12.6 -15.9 76 4 8 24.1 102.04   -18 LegendNANA

Notes on Data Quality.

Legend

  • E = Estimated
  • M = Missing
  • NA = Not Available*
  • [empty] = Indicates an unobserved value
Date modified: